MVL584 UHPP-UHMM

Flight info

Callsign MVL584
Flight time N/A
Altitude 32000
Route K0900F320 BAKEN A812 OSKET
Aircraft B742/H-SDFHIRWXY/L

Departure

Time 2026-04-30 04:20
Airport Yelizovo Airport (UHPP)

Arrival

Time N/A
Airport Sokol Airport (UHMM)
Time Latitude Longitude Altitude Speed Heading
2026-04-30 03:33 53.16856 158.43016 128 ft 0 kts 238°
2026-04-30 04:11 53.16850 158.42999 128 ft 4 kts 241°
2026-04-30 04:11 53.16846 158.42935 128 ft 6 kts 290°
2026-04-30 04:11 53.16883 158.42870 128 ft 8 kts 323°
2026-04-30 04:11 53.16939 158.42812 128 ft 10 kts 334°
2026-04-30 04:12 53.17012 158.42806 128 ft 11 kts 23°
2026-04-30 04:12 53.17064 158.42911 128 ft 12 kts 59°
2026-04-30 04:12 53.17111 158.43047 128 ft 14 kts 59°
2026-04-30 04:12 53.17167 158.43201 128 ft 16 kts 60°
2026-04-30 04:13 53.17227 158.43375 128 ft 18 kts 59°
2026-04-30 04:13 53.17295 158.43567 128 ft 20 kts 59°
2026-04-30 04:13 53.17369 158.43774 128 ft 21 kts 59°
2026-04-30 04:13 53.17446 158.43996 128 ft 21 kts 63°
2026-04-30 04:14 53.17490 158.44163 128 ft 12 kts 69°
2026-04-30 04:14 53.17536 158.44247 128 ft 9 kts 13°
2026-04-30 04:14 53.17598 158.44237 128 ft 8 kts 348°
2026-04-30 04:14 53.17657 158.44218 128 ft 8 kts 348°
2026-04-30 04:15 53.17715 158.44199 128 ft 8 kts 348°
2026-04-30 04:15 53.17770 158.44182 128 ft 8 kts 348°
2026-04-30 04:15 53.17825 158.44163 128 ft 7 kts 348°
2026-04-30 04:15 53.17877 158.44147 128 ft 7 kts 348°
2026-04-30 04:16 53.17929 158.44128 128 ft 7 kts 348°
2026-04-30 04:16 53.17983 158.44110 128 ft 8 kts 347°
2026-04-30 04:16 53.18041 158.44089 128 ft 9 kts 347°
2026-04-30 04:16 53.18110 158.44064 128 ft 11 kts 347°
2026-04-30 04:17 53.18162 158.44043 128 ft 0 kts 345°
2026-04-30 04:17 53.18163 158.44043 128 ft 1 kts 345°
2026-04-30 04:17 53.18193 158.44031 128 ft 8 kts 346°
2026-04-30 04:18 53.18266 158.44028 128 ft 11 kts 33°
2026-04-30 04:18 53.18270 158.44136 128 ft 10 kts 141°
2026-04-30 04:18 53.18234 158.44170 128 ft 0 kts 154°
2026-04-30 04:19 53.18201 158.44194 128 ft 16 kts 156°
2026-04-30 04:19 53.17973 158.44351 128 ft 58 kts 158°
2026-04-30 04:20 53.17371 158.44771 129 ft 133 kts 156°
2026-04-30 04:20 53.16317 158.45494 367 ft 183 kts 159°
2026-04-30 04:20 53.15111 158.46275 815 ft 192 kts 159°
2026-04-30 04:20 53.13829 158.47012 1259 ft 200 kts 162°
2026-04-30 04:21 53.12455 158.47633 1637 ft 211 kts 166°
2026-04-30 04:21 53.11028 158.48325 2084 ft 218 kts 160°
2026-04-30 04:21 53.09610 158.49239 2531 ft 225 kts 159°
2026-04-30 04:21 53.08131 158.50233 2861 ft 234 kts 157°
2026-04-30 04:22 53.06628 158.51407 3110 ft 245 kts 154°
2026-04-30 04:22 53.05091 158.52683 3521 ft 244 kts 153°
2026-04-30 04:22 53.03588 158.53961 3770 ft 248 kts 153°
2026-04-30 04:22 53.02031 158.55289 4035 ft 251 kts 152°
2026-04-30 04:23 53.00477 158.56607 4189 ft 258 kts 160°
2026-04-30 04:23 52.98703 158.56978 4382 ft 256 kts 188°
2026-04-30 04:23 52.97100 158.55936 4794 ft 240 kts 217°
2026-04-30 04:23 52.96048 158.53972 5212 ft 225 kts 243°
2026-04-30 04:24 52.95732 158.51515 5370 ft 224 kts 277°
2026-04-30 04:24 52.96231 158.49080 5598 ft 219 kts 303°
2026-04-30 04:24 52.97299 158.47395 5946 ft 213 kts 329°
2026-04-30 04:24 52.98737 158.46655 6134 ft 220 kts 352°
2026-04-30 04:25 53.00244 158.46670 6467 ft 218 kts 14°
2026-04-30 04:25 53.01664 158.47453 6849 ft 218 kts 16°
2026-04-30 04:25 53.03108 158.48219 7229 ft 220 kts 16°
2026-04-30 04:25 53.04621 158.49020 7607 ft 234 kts 16°
2026-04-30 04:26 53.06235 158.49602 7994 ft 248 kts
2026-04-30 04:26 53.07986 158.49245 8392 ft 258 kts 344°
2026-04-30 04:26 53.09707 158.48253 8781 ft 266 kts 336°
2026-04-30 04:26 53.11408 158.46968 9165 ft 274 kts 334°
2026-04-30 04:27 53.13145 158.45529 9557 ft 285 kts 333°
2026-04-30 04:27 53.14935 158.44002 9950 ft 296 kts 332°
2026-04-30 04:27 53.16780 158.42410 10344 ft 307 kts 332°
2026-04-30 04:27 53.18719 158.40733 10740 ft 318 kts 332°
2026-04-30 04:28 53.20710 158.39006 11133 ft 329 kts 332°
2026-04-30 04:28 53.22760 158.37228 11534 ft 340 kts 332°
2026-04-30 04:28 53.24867 158.35399 11956 ft 348 kts 332°
2026-04-30 04:28 53.27040 158.33507 12318 ft 354 kts 332°
2026-04-30 04:29 53.29222 158.31606 12727 ft 359 kts 332°
2026-04-30 04:29 53.31451 158.29660 13158 ft 364 kts 332°
2026-04-30 04:29 53.33705 158.27692 13555 ft 368 kts 332°
2026-04-30 04:29 53.35976 158.25708 13937 ft 372 kts 332°
2026-04-30 04:30 53.38248 158.23718 14350 ft 376 kts 332°
2026-04-30 04:30 53.40599 158.21660 14748 ft 379 kts 332°
2026-04-30 04:30 53.42916 158.19627 15139 ft 383 kts 332°
2026-04-30 04:30 53.45290 158.17541 15553 ft 386 kts 332°
2026-04-30 04:31 53.47655 158.15462 15939 ft 388 kts 332°
2026-04-30 04:31 53.50059 158.13345 16339 ft 391 kts 332°
2026-04-30 04:31 53.52458 158.11230 16737 ft 393 kts 332°
2026-04-30 04:31 53.54901 158.09073 17136 ft 395 kts 332°
2026-04-30 04:32 53.57327 158.06929 17540 ft 397 kts 332°
2026-04-30 04:32 53.59751 158.04784 17923 ft 398 kts 331°
2026-04-30 04:32 53.62222 158.02594 18324 ft 400 kts 331°
2026-04-30 04:32 53.64655 158.00403 18730 ft 401 kts 330°
2026-04-30 04:33 53.67116 157.98126 19122 ft 402 kts 330°
2026-04-30 04:33 53.69528 157.95853 19523 ft 402 kts 329°
2026-04-30 04:33 53.71965 157.93532 19919 ft 403 kts 329°
2026-04-30 04:33 53.74388 157.91213 20323 ft 403 kts 329°
2026-04-30 04:34 53.76836 157.88858 20736 ft 403 kts 329°
2026-04-30 04:34 53.79268 157.86505 21140 ft 402 kts 329°
2026-04-30 04:34 53.81689 157.84155 21541 ft 402 kts 329°
2026-04-30 04:34 53.84085 157.81821 21933 ft 401 kts 329°
2026-04-30 04:35 53.86500 157.79462 22337 ft 399 kts 329°
2026-04-30 04:35 53.88896 157.77118 22746 ft 400 kts 329°
2026-04-30 04:35 53.91284 157.74779 23147 ft 402 kts 328°
2026-04-30 04:35 53.93716 157.72391 23556 ft 404 kts 328°
2026-04-30 04:36 53.96146 157.70004 23960 ft 406 kts 328°
2026-04-30 04:36 53.98586 157.67607 24366 ft 408 kts 328°
2026-04-30 04:36 54.01035 157.65199 24770 ft 409 kts 328°
2026-04-30 04:36 54.03489 157.62781 25175 ft 411 kts 328°
2026-04-30 04:37 54.05958 157.60342 25580 ft 412 kts 328°
2026-04-30 04:37 54.08424 157.57904 25982 ft 414 kts 328°
2026-04-30 04:37 54.10912 157.55446 26382 ft 415 kts 328°
2026-04-30 04:37 54.13409 157.52983 26777 ft 417 kts 329°
2026-04-30 04:38 54.15921 157.50507 27171 ft 419 kts 329°
2026-04-30 04:38 54.18430 157.48032 27564 ft 420 kts 329°
2026-04-30 04:38 54.20954 157.45537 27959 ft 421 kts 329°
2026-04-30 04:38 54.23504 157.43013 28355 ft 422 kts 329°
2026-04-30 04:39 54.26043 157.40497 28748 ft 424 kts 329°
2026-04-30 04:39 54.28591 157.37967 29089 ft 426 kts 329°
2026-04-30 04:39 54.31124 157.35451 29428 ft 427 kts 329°
2026-04-30 04:39 54.33683 157.32906 29764 ft 428 kts 328°
2026-04-30 04:40 54.36272 157.30324 30107 ft 428 kts 328°
2026-04-30 04:40 54.38816 157.27785 30440 ft 429 kts 329°
2026-04-30 04:40 54.41375 157.25223 30768 ft 429 kts 329°
2026-04-30 04:40 54.43965 157.22629 31097 ft 429 kts 329°
2026-04-30 04:41 54.46521 157.20064 31393 ft 429 kts 329°
2026-04-30 04:41 54.49110 157.17464 31568 ft 432 kts 329°
2026-04-30 04:41 54.51685 157.14874 31643 ft 436 kts 329°
2026-04-30 04:42 54.56953 157.09570 31670 ft 440 kts 329°
2026-04-30 04:42 54.62216 157.04245 31677 ft 439 kts 329°
2026-04-30 04:43 54.67455 156.98930 31687 ft 437 kts 330°
2026-04-30 04:43 54.72646 156.93652 31714 ft 435 kts 330°
2026-04-30 04:44 54.77840 156.88358 31738 ft 436 kts 330°
2026-04-30 04:44 54.83064 156.83017 31739 ft 439 kts 330°
2026-04-30 04:45 54.88337 156.77609 31749 ft 443 kts 330°
2026-04-30 04:45 54.93634 156.72157 31752 ft 445 kts 330°
2026-04-30 04:46 54.98952 156.66664 31761 ft 446 kts 330°
2026-04-30 04:46 55.04261 156.61157 31771 ft 446 kts 330°
2026-04-30 04:47 55.09581 156.55621 31771 ft 446 kts 330°
2026-04-30 04:47 55.14861 156.50114 31774 ft 445 kts 330°
2026-04-30 04:48 55.20186 156.44554 31777 ft 445 kts 330°
2026-04-30 04:48 55.25454 156.39040 31783 ft 444 kts 330°
2026-04-30 04:49 55.30741 156.33485 31780 ft 444 kts 330°
2026-04-30 04:49 55.36008 156.27934 31786 ft 444 kts 330°
2026-04-30 04:50 55.41274 156.22351 31785 ft 443 kts 330°
2026-04-30 04:50 55.46534 156.16748 31787 ft 443 kts 330°
2026-04-30 04:51 55.51812 156.11104 31786 ft 443 kts 330°
2026-04-30 04:51 55.57048 156.05487 31796 ft 443 kts 330°
2026-04-30 04:52 55.62299 155.99835 31802 ft 442 kts 330°
2026-04-30 04:52 55.67513 155.94206 31810 ft 442 kts 330°
2026-04-30 04:53 55.72748 155.88535 31816 ft 442 kts 330°
2026-04-30 04:53 55.77965 155.82864 31823 ft 442 kts 330°
2026-04-30 04:54 55.83182 155.77177 31823 ft 442 kts 331°
2026-04-30 04:54 55.88397 155.71475 31826 ft 442 kts 330°
2026-04-30 04:55 55.93634 155.65729 31829 ft 442 kts 330°
2026-04-30 04:55 55.98856 155.59981 31829 ft 442 kts 331°
2026-04-30 04:56 56.04065 155.54228 31830 ft 442 kts 331°
2026-04-30 04:56 56.09271 155.48460 31836 ft 442 kts 331°
2026-04-30 04:57 56.14500 155.42650 31834 ft 443 kts 331°
2026-04-30 04:57 56.19727 155.36877 31838 ft 443 kts 331°
2026-04-30 04:58 56.24954 155.31142 31830 ft 444 kts 330°
2026-04-30 04:58 56.30209 155.25366 31833 ft 444 kts 330°
2026-04-30 04:59 56.35452 155.19588 31835 ft 444 kts 330°
2026-04-30 04:59 56.40732 155.13751 31836 ft 445 kts 331°
2026-04-30 05:00 56.45993 155.07915 31831 ft 445 kts 331°
2026-04-30 05:00 56.51228 155.02089 31835 ft 445 kts 331°
2026-04-30 05:01 56.56514 154.96185 31843 ft 445 kts 331°
2026-04-30 05:01 56.61737 154.90335 31850 ft 446 kts 331°
2026-04-30 05:02 56.66998 154.84421 31850 ft 446 kts 331°
2026-04-30 05:02 56.72278 154.78465 31853 ft 446 kts 331°
2026-04-30 05:03 56.77514 154.72540 31853 ft 446 kts 331°
2026-04-30 05:03 56.82764 154.66582 31863 ft 447 kts 331°
2026-04-30 05:04 56.88041 154.60571 31864 ft 447 kts 331°
2026-04-30 05:04 56.93308 154.54549 31862 ft 447 kts 331°
2026-04-30 05:05 56.98562 154.48524 31863 ft 448 kts 331°
2026-04-30 05:05 57.03827 154.42465 31862 ft 448 kts 331°
2026-04-30 05:06 57.11722 154.33342 31858 ft 449 kts 330°
2026-04-30 05:06 57.16998 154.27217 31852 ft 450 kts 330°
2026-04-30 05:07 57.22264 154.21030 31861 ft 450 kts 330°
2026-04-30 05:07 57.27508 154.14819 31864 ft 451 kts 330°
2026-04-30 05:08 57.32774 154.08553 31867 ft 452 kts 330°
2026-04-30 05:08 57.38051 154.02249 31862 ft 453 kts 330°
2026-04-30 05:09 57.43317 153.95937 31853 ft 453 kts 330°
2026-04-30 05:09 57.48581 153.89604 31859 ft 454 kts 330°
2026-04-30 05:10 57.53873 153.83215 31859 ft 454 kts 330°
2026-04-30 05:10 57.59123 153.76855 31866 ft 454 kts 330°
2026-04-30 05:11 57.64399 153.70441 31871 ft 454 kts 330°
2026-04-30 05:11 57.69678 153.64002 31877 ft 455 kts 330°
2026-04-30 05:12 57.74958 153.57538 31883 ft 454 kts 330°
2026-04-30 05:12 57.80207 153.51092 31888 ft 454 kts 330°
2026-04-30 05:13 57.85469 153.44632 31884 ft 453 kts 330°
2026-04-30 05:13 57.90703 153.38188 31881 ft 452 kts 330°
2026-04-30 05:14 57.95940 153.31718 31873 ft 451 kts 330°
2026-04-30 05:14 58.01178 153.25226 31876 ft 450 kts 330°
2026-04-30 05:15 58.06381 153.18751 31876 ft 450 kts 330°
2026-04-30 05:15 58.11591 153.12247 31870 ft 449 kts 330°
2026-04-30 05:16 58.16752 153.05745 31871 ft 449 kts 329°
2026-04-30 05:16 58.21886 152.99030 31869 ft 448 kts 329°
2026-04-30 05:17 58.26953 152.92284 31866 ft 448 kts 328°
2026-04-30 05:17 58.32048 152.85466 31867 ft 448 kts 328°
2026-04-30 05:18 58.37095 152.78688 31866 ft 447 kts 328°
2026-04-30 05:18 58.42170 152.71846 31867 ft 447 kts 328°
2026-04-30 05:19 58.47196 152.65045 31863 ft 447 kts 328°
2026-04-30 05:19 58.52265 152.58162 31863 ft 446 kts 328°